#timestamp,LO_Frequency,Hit,StdDev 
1567962015.0,286047001.2,N
1567962015.9,286047001.2,N
1567962035.8,286047002.8,N
1567962055.6,286047000.2,N
1567962075.4,286047000.2,N
1567962095.3,286047000.7,N
1567962115.1,286046998.1,N
1567962135.8,286047000.3,N
1567962155.7,286046999.9,N
1567962175.5,286047002.7,N
1567962195.4,286047002.1,N
1567962215.2,286047004.1,N
1567962235.0,286047007.1,Y
1567962235.9,286047007.1,P
1567962255.8,286047006.6,N
1567962275.6,286047010.2,N
1567962295.4,286047009.8,N
1567962315.3,286047010.0,N
1567962335.1,286047010.0,N
1567962355.9,286047011.5,Y
1567962375.7,286047006.7,P
1567962395.6,286047006.9,P
1567962415.4,286047006.1,P
1567962435.2,286047008.5,Y
1567962455.1,286047001.5,P
1567962456.0,286047001.5,N
1567962505.8,286047005.1,E
1567962515.8,286047002.9,N
1567962535.6,286047001.5,P
1567962555.4,286047004.1,P
1567962575.3,286046999.7,N
1567962595.1,286046998.5,N
1567962615.8,286047000.6,N
1567962635.7,286046997.0,N
1567962655.5,286046997.3,N
1567962675.4,286046999.2,N
1567962695.2,286047002.8,N
1567962715.0,286047002.1,N
1567962715.9,286047002.1,N
1567962735.8,286047001.6,N
1567962755.6,286047001.7,N
1567962775.4,286047001.0,N
1567962795.3,286047001.7,N
1567962815.1,286047003.0,N
1567962835.9,286047005.2,N
1567962855.7,286047010.7,Y
1567962875.5,286047006.5,P
1567962895.4,286047006.5,N
1567962915.2,286047006.6,N
1567962935.0,286047001.4,N
1567962935.9,286047001.4,N
1567962955.8,286047002.1,N
1567962975.6,286047003.3,N
1567962995.5,286047003.4,N
1567963015.3,286047002.2,N
1567963035.1,286047000.6,N
1567963055.9,286046998.3,N
1567963075.7,286046996.9,N
1567963095.5,286046995.0,N
1567963115.4,286046996.0,N
1567963135.2,286046996.8,N
1567963155.1,286046996.9,N
1567963156.0,286046996.9,N
1567963175.8,286046997.8,N
1567963195.6,286046996.6,N
1567963215.5,286046997.3,N
1567963235.3,286046996.1,N
1567963255.2,286046994.0,N
1567963275.9,286046995.2,N
1567963295.7,286046995.3,N
1567963315.6,286046997.1,N
1567963335.4,286047002.8,N
1567963355.2,286047001.6,N
1567963375.1,286047002.4,N
1567963376.0,286047002.4,N
1567963395.8,286047001.8,N
1567963415.7,286046999.7,N
1567963435.5,286047002.8,N
1567963455.3,286047003.7,N
1567963475.2,286047004.0,N
1567963495.9,286047001.3,N
1567963515.7,286047000.2,N
1567963535.6,286047001.9,N
1567963555.4,286047002.3,N
1567963575.2,286046998.1,N
1567963595.1,286046997.1,N
1567963596.0,286046997.1,N
1567963615.8,286046996.5,N
1567963635.7,286046996.7,N
1567963655.5,286046997.4,N
1567963675.3,286046996.6,N
1567963695.2,286046996.5,N
1567963715.0,286046996.7,N
1567963715.9,286046996.7,N
1567963735.8,286046996.5,N
1567963755.6,286046997.5,N
1567963775.4,286046996.2,N
1567963795.3,286046996.2,N
1567963815.1,286046994.7,N
1567963835.8,286046993.1,N
1567963855.7,286046988.6,Y
1567963875.5,286046988.7,P
1567963895.4,286046989.3,N
1567963915.2,286046989.6,N
1567963935.0,286046987.7,N
1567963935.9,286046987.7,Y
1567963955.8,286046995.8,P
1567963975.6,286046992.2,P
1567963995.4,286046992.1,P
1567964015.3,286046994.1,Y
1567964035.1,286047000.3,P
1567964055.9,286046998.6,N
1567964075.7,286046999.3,N
1567964095.5,286046998.4,N
1567964115.4,286046997.1,N
1567964135.2,286046996.9,N
1567964155.0,286046997.1,N
1567964156.0,286046997.1,N
1567964175.8,286046995.5,N
1567964195.6,286046997.9,N
1567964215.5,286046996.6,N
1567964235.3,286047000.6,N
1567964255.1,286047000.6,N
1567964275.9,286047004.3,N
1567964295.7,286047004.1,N
1567964315.5,286047003.9,N
1567964335.4,286047003.6,N
1567964355.2,286047003.1,N
1567964375.1,286047003.9,N
1567964376.0,286047003.9,N
1567964395.8,286047005.9,N
1567964415.6,286047003.5,N
1567964435.5,286047005.8,N
1567964455.3,286047003.4,N
1567964475.1,286047005.3,N
1567964495.9,286047007.6,N
1567964515.7,286047006.6,N
1567964535.6,286047006.7,N
1567964555.4,286047005.1,N
1567964575.2,286047007.3,N
1567964595.1,286047008.8,N
1567964596.0,286047008.8,N
1567964615.8,286047007.2,N
1567964635.6,286047005.1,N
1567964655.5,286047003.0,N
1567964675.3,286047002.9,N
1567964695.2,286047005.8,N
1567964715.9,286047005.7,N
1567964735.7,286047003.4,N
1567964755.6,286047004.2,N
1567964775.4,286047004.3,N
1567964795.2,286047003.8,N
1567964815.1,286047005.9,Y
1567964816.0,286047005.9,P
1567964835.8,286046998.9,N
1567964855.7,286047000.3,N
1567964875.5,286047002.0,N
1567964895.3,286047005.3,N
1567964915.2,286047003.1,N
1567964935.0,286047003.6,N
1567964935.9,286047003.6,N
1567964955.8,286047001.7,N
1567964975.6,286047002.2,N
1567964995.4,286047001.6,N
1567965015.3,286047000.3,N
1567965035.1,286046998.9,N
1567965055.9,286046999.5,N
1567965075.7,286046996.7,N
1567965095.5,286046995.8,N
1567965115.4,286046996.1,N
1567965135.2,286046993.6,N
1567965155.0,286046996.2,N
1567965155.9,286046996.2,N
1567965175.8,286046993.3,N
1567965195.6,286046994.2,N
1567965215.5,286046993.8,N
1567965235.3,286046995.3,N
1567965255.1,286046997.6,N
1567965275.9,286046994.9,N
1567965295.7,286046995.1,N
1567965315.5,286046996.6,N
1567965335.4,286046996.9,N
1567965355.2,286046999.0,N
1567965375.1,286046998.5,N
1567965376.0,286046998.5,N
1567965395.8,286047000.1,N
1567965415.6,286046999.7,N
1567965435.5,286046999.3,N
1567965455.3,286046997.9,N
1567965475.1,286046995.5,N
1567965495.9,286046995.8,N
1567965515.7,286046994.0,N
1567965535.6,286046994.4,N
1567965555.4,286046994.6,N
1567965575.2,286046993.5,Y
1567965595.1,286047001.1,P
1567965596.0,286047001.1,N
